FW0303 Weather Reports


time (UTC)temp
C
wind
direction
speed
KPH
gust
KPH
rain 1hr
cm
rain 24hr
cm
rain mn
cm
humidity
%
barometer
mb
20260505153022 26 13 0.0 6.4 0.00 0.00 0.00 48 1010.5
20260505151518 25 42 0.0 6.4 0.00 0.00 0.00 48 1010.5
20260505140124 22 209 0.0 0.0 0.00 0.00 0.00 54 1011.2
20260505124545 17 46 0.0 0.0 0.00 0.00 0.00 71 1011.2
20260505123035 15 24 0.0 0.0 0.00 0.00 0.00 78 1011.0
20260505121534 13 360 0.0 4.8 0.00 0.00 0.00 87 1011.2
20260505120026 12 360 0.0 0.0 0.00 0.00 0.00 88 1011.1
20260505114523 10 360 0.0 0.0 0.00 0.00 0.00 87 1011.1
20260505113018 9 360 0.0 0.0 0.00 0.00 0.00 86 1011.0
20260505111516 8 360 0.0 0.0 0.00 0.00 0.00 86 1011.0
20260505101518 8 5 0.0 0.0 0.00 0.00 0.00 85 1011.2
20260505100012 8 5 0.0 0.0 0.00 0.00 0.00 85 1010.7
20260505094517 8 5 0.0 0.0 0.00 0.00 0.00 85 1010.5
20260505093008 8 5 0.0 0.0 0.00 0.00 0.00 85 1010.4
20260505091506 8 5 0.0 0.0 0.00 0.00 0.00 85 1010.3
20260505090004 8 5 0.0 0.0 0.00 0.00 0.00 85 1010.3
20260505084503 8 5 0.0 0.0 0.00 0.00 0.00 85 1010.3
20260505083005 8 5 0.0 0.0 0.00 0.00 0.00 85 1010.2
20260505081501 8 5 0.0 0.0 0.00 0.00 0.00 84 1010.4
20260505080108 8 5 0.0 0.0 0.00 0.00 0.00 84 1010.5
20260505074600 8 5 0.0 0.0 0.00 0.00 0.00 84 1010.2
20260505073104 8 5 0.0 0.0 0.00 0.00 0.00 83 1010.0
20260505071556 8 5 0.0 0.0 0.00 0.00 0.00 83 1010.1
20260505070057 8 5 0.0 0.0 0.00 0.00 0.00 83 1010.2
20260505064554 8 5 0.0 0.0 0.00 0.00 0.00 83 1010.0
20260505063112 9 5 0.0 0.0 0.00 0.00 0.00 83 1010.1
20260505061556 9 5 0.0 0.0 0.00 0.00 0.00 83 1010.1
20260505060054 9 5 0.0 0.0 0.00 0.00 0.00 83 1010.1
20260505054558 9 5 0.0 0.0 0.00 0.00 0.00 82 1010.2
20260505053056 9 5 0.0 0.0 0.00 0.00 0.00 82 1010.4
20260505051547 9 5 0.0 1.6 0.00 0.00 0.00 82 1010.4
20260505041552 9 5 0.0 1.6 0.00 0.00 0.00 81 1010.5
20260505040049 9 5 0.0 3.2 0.00 0.00 0.00 80 1010.5
20260505034539 9 5 0.0 0.0 0.00 0.00 0.00 79 1010.4
20260505033041 10 5 0.0 0.0 0.00 0.00 0.00 78 1010.5
20260505031543 10 5 0.0 0.0 0.00 0.00 0.00 77 1010.6
20260505030038 10 5 0.0 0.0 0.00 0.00 0.00 75 1010.7
20260505024552 10 5 0.0 0.0 0.00 0.00 0.00 74 1010.8
20260505023039 11 5 0.0 0.0 0.00 0.00 0.00 72 1010.8
20260505021538 11 5 0.0 0.0 0.00 0.00 0.00 70 1010.9
20260505020036 11 5 0.0 0.0 0.00 0.00 0.00 66 1010.8
20260505014553 12 5 0.0 0.0 0.00 0.00 0.00 63 1010.7
20260505013036 13 5 0.0 0.0 0.00 0.00 0.00 60 1010.7
20260505011535 13 5 0.0 0.0 0.00 0.00 0.00 57 1010.4
20260505010034 15 5 0.0 0.0 0.00 0.00 0.00 55 1010.2
20260505004539 15 5 0.0 0.0 0.00 0.00 0.00 53 1010.1
20260505003035 16 5 0.0 0.0 0.00 0.00 0.00 50 1010.0
20260505001533 17 5 0.0 1.6 0.00 0.00 0.00 49 1009.8
20260505000045 18 5 0.0 1.6 0.00 0.00 0.00 44 1009.8
20260504234535 18 5 0.0 3.2 0.00 0.00 0.00 42 1009.6
20260504233043 19 360 0.0 6.4 0.00 0.00 0.00 40 1009.4
20260504231532 20 15 0.0 6.4 0.00 0.00 0.00 39 1009.3
20260504230034 20 17 0.0 0.0 0.00 0.00 0.00 40 1009.2
20260504224534 20 24 0.0 0.0 0.00 0.00 0.00 37 1009.1
20260504223049 21 5 0.0 0.0 0.00 0.00 0.00 35 1009.2
20260504221531 21 5 0.0 0.0 0.00 0.00 0.00 34 1009.2
20260504220028 22 302 0.0 0.0 0.00 0.00 0.00 32 1009.3
20260504214529 22 233 0.0 0.0 0.00 0.00 0.00 33 1009.5
20260504213039 22 5 0.0 0.0 0.00 0.00 0.00 32 1009.5
20260504211532 23 59 0.0 0.0 0.00 0.00 0.00 33 1009.6
20260504210025 22 194 0.0 0.0 0.00 0.00 0.00 33 1009.7
20260504204535 22 294 0.0 0.0 0.00 0.00 0.00 33 1009.5
20260504203024 22 32 0.0 0.0 0.00 0.00 0.00 32 1009.6
20260504201519 22 360 0.0 0.0 0.00 0.00 0.00 29 1009.6
20260504200018 23 5 0.0 0.0 0.00 0.00 0.00 29 1009.6
20260504194516 23 36 0.0 0.0 0.00 0.00 0.00 31 1009.8
20260504193016 23 346 0.0 0.0 0.00 0.00 0.00 32 1009.9
20260504191513 23 248 0.0 0.0 0.00 0.00 0.00 30 1010.1
20260504190010 23 360 0.0 6.4 0.00 0.00 0.00 32 1010.4
20260504184508 23 247 3.2 9.7 0.00 0.00 0.00 32 1010.6
20260504183008 23 320 0.0 0.0 0.00 0.00 0.00 32 1010.7
20260504181506 23 213 0.0 0.0 0.00 0.00 0.00 35 1010.9
20260504180001 22 77 0.0 0.0 0.00 0.00 0.00 38 1011.1
20260504174618 22 265 0.0 0.0 0.00 0.00 0.00 33 1011.2
20260504173101 22 238 0.0 0.0 0.00 0.00 0.00 35 1011.3
20260504171554 21 196 0.0 0.0 0.00 0.00 0.00 40 1011.4